Location: Salamanca
(40.9670°N, 5.6500°W)
Time: 14:06:20
(UTC+02:00)

Daily predictions for brighter satellites

Satellite Brightness Start Highest point End
(mag) Time Altitude Azimuth Time Altitude Azimuth Time Altitude Azimuth
Cosmos 2278 4.5 21:28:42 10° SSE 21:33:33 30° ESE 21:38:25 10° NE
Cosmos 1602 4.2 21:30:28 10° SSW 21:34:23 68° W 21:38:21 10° N
Resurs 01 Rocket 2.4 21:35:53 10° S 21:40:13 56° W 21:44:36 10° NNW
DELTA 2 R/B (1) 3.6 21:35:08 10° W 21:40:42 78° S 21:46:16 10° E
Meteor 1-23 Rocket 4.2 21:38:31 10° N 21:44:09 73° E 21:49:49 10° SSE
Cosmos 1461 4.1 21:40:57 10° N 21:44:26 26° NE 21:47:44 10° ESE
NOSS 2-1 (D) 3.3 21:42:26 10° SSW 21:46:17 80° ESE 21:50:37 10° NE
Cosmos 2369 4.3 21:41:17 10° SSE 21:46:18 34° ESE 21:51:22 10° NE
NOSS 2-1 (C) 3.3 21:43:27 10° SSW 21:47:18 79° ESE 21:51:39 10° NE
Lacrosse 5 rocket 2.9 21:44:27 10° NNW 21:47:20 20° NNE 21:50:09 10° E
Cosmos 1315 Rocket 3.4 21:44:44 10° SSW 21:48:40 61° W 21:52:41 10° N
Iridium 4 Rocket 4.3 21:51:33 10° NNE 21:56:05 30° E 22:00:08 11° SE
Cosmos 1821 Rocket 4.0 21:53:16 10° S 21:59:23 89° E 22:05:31 10° N
Cosmos 1605 Rocket 4.1 21:56:06 10° SSE 22:02:16 55° E 22:08:22 10° NNE
Delta 2 Rocket 4.4 21:57:02 10° WSW 22:02:24 47° S 22:06:19 15° ESE
Cosmos 968 Rocket 4.5 21:58:16 10° NNW 22:03:11 47° WSW 22:08:03 10° S
NOSS 2-1 (E) 3.6 21:59:24 10° SW 22:03:17 77° NW 22:07:46 10° NNE
OAO 2 Rocket 4.4 21:59:44 10° SW 22:03:58 27° SSE 22:07:03 16° ESE
Cosmos 1544 Rocket 3.6 21:59:42 10° S 22:04:04 88° WNW 22:08:29 10° N
H-2A R/B 2.8 22:00:27 10° S 22:04:18 83° W 22:08:13 10° NNW
ATLAS CENTAUR R/B 4.0 22:00:50 10° WSW 22:05:12 29° NW 22:09:30 10° NNE
CZ-4 DEB 3.5 22:03:43 16° SE 22:05:45 34° ENE 22:08:38 10° N
Tiangong 1 1.1 22:03:15 10° W 22:06:21 77° N 22:08:54 14° ENE
Cosmos 1939 Rocket 3.9 22:04:44 15° ESE 22:07:24 30° ENE 22:11:03 10° N
Meteor 2-16 Rocket 4.4 22:02:55 10° S 22:09:00 86° E 22:15:06 10° N
ERS-1 Rocket 3.3 22:07:29 12° SE 22:11:51 47° ENE 22:16:40 10° N
USA 186 2.0 22:10:14 10° S 22:13:22 66° W 22:16:21 10° NNW
OTV 4 0.9 22:13:46 10° W 22:16:37 44° S 22:17:47 28° SE
CZ-2D R/B 4.2 22:15:11 10° S 22:18:54 48° W 22:22:41 10° NNW
BREEZE-M TANK 3.8 22:06:31 10° WNW 22:20:47 71° N 22:23:39 19° E
Cosmos 2227 Rocket 2.2 22:16:48 10° NNW 22:22:29 72° ENE 22:26:51 17° SSE
Hubble Space Telescope 3.0 22:23:18 10° SW 22:25:00 12° S 22:26:11 11° S
USA 215 4.4 22:19:59 11° E 22:25:29 32° NNE 22:31:08 10° NW
Cosmos 1346 Rocket 3.3 22:26:55 10° NNW 22:30:47 58° W 22:34:40 10° S
Cosmos 2123 Rocket 4.1 22:24:36 10° N 22:30:48 76° W 22:36:56 10° S
RESURS DK-1 4.0 22:31:44 10° N 22:34:44 19° NE 22:35:34 18° ENE
Cosmos 2082 3.6 22:29:18 10° NNW 22:34:57 85° ENE 22:38:50 21° SSE
Cosmos 1656 3.8 22:30:54 10° S 22:36:18 50° ESE 22:41:40 10° NE
ALOS 3.9 22:32:57 10° SSW 22:37:09 33° W 22:41:22 10° NNW
YAOGAN 11 4.1 22:33:39 15° SSE 22:37:20 86° WSW 22:41:51 10° NNW
Cosmos 2297 Rocket 2.2 22:32:44 10° NNW 22:38:24 70° ENE 22:41:40 26° SE
NOSS 3-4 (A) 4.1 22:35:40 10° NW 22:42:39 69° WSW 22:48:22 18° SSE
NOSS 3-4 (C) 4.0 22:35:46 10° NW 22:42:47 69° WSW 22:48:27 18° SSE
Cosmos 1825 Rocket 4.4 22:42:29 10° NNE 22:46:28 31° ENE 22:46:51 31° E
Cosmos 1459 Rocket 4.1 22:45:38 22° SSE 22:49:19 51° E 22:55:11 10° NNE
Cosmos 1500 3.0 22:49:29 41° SSE 22:50:39 69° E 22:54:24 10° NNE
Lacrosse 5 2.9 22:47:28 10° NNW 22:52:05 34° NE 22:54:03 25° ENE
Nimbus 7 Rocket 4.4 22:49:00 10° NNE 22:55:02 64° ESE 23:00:36 12° S
SPOT 5 3.0 22:54:45 37° SE 22:56:35 60° ENE 23:01:25 10° N
Cosmos 2298 Rocket 4.0 22:52:03 10° NNW 22:57:22 70° ENE 22:59:20 39° SE
H-2A R/B 1.8 22:57:58 50° SE 22:58:56 75° ENE 23:03:03 10° N
deb Chang Zheng 4 3.5 22:58:12 10° NNE 23:02:41 80° ESE 23:04:50 30° S
Cosmos 1626 Rocket 4.3 22:59:56 10° NNW 23:04:12 50° W 23:06:56 20° SSW
Cosmos 1066 Rocket 4.2 23:01:55 10° N 23:07:36 88° E 23:10:15 34° S
Cosmos 1340 3.7 23:04:03 10° N 23:06:48 33° NE 23:06:48 33° NE
H-2A R/B 3.4 23:08:17 21° ENE 23:08:17 21° ENE 23:11:54 10° NNE
Cosmos 1802 Rocket 4.0 23:06:40 30° SSE 23:09:56 65° E 23:16:18 10° NNE
Cosmos 1515 4.4 23:09:12 10° NNW 23:12:57 51° W 23:14:00 38° SW
Cosmos 1975 4.2 23:09:18 10° SSW 23:13:08 38° WNW 23:16:59 10° N
Envisat 3.4 23:10:36 26° S 23:13:21 60° W 23:18:24 10° NNW
MetOp-A 4.0 23:11:47 46° SSE 23:13:26 78° ENE 23:18:49 10° N
GEOS 3 Rocket 4.4 23:08:54 10° NE 23:12:07 33° ENE 23:12:07 33° ENE
Cosmos 1758 Rocket 4.4 23:09:51 10° N 23:13:18 36° NE 23:13:18 36° NE
Cosmos 1697 Rocket 2.5 23:12:19 10° SSW 23:17:57 82° ESE 23:23:38 10° NNE
Cosmos 1937 Rocket 3.4 23:14:21 10° NNW 23:19:37 72° ENE 23:20:28 59° SE
BREEZE-M DEB (TANK) 3.6 23:06:04 10° WSW 23:19:52 84° SSE 23:22:02 35° ENE
Cosmos 1743 2.9 23:21:04 67° NNE 23:21:04 67° NNE 23:24:29 10° N
Cosmos 1461 4.3 23:20:05 10° NW 23:23:34 28° WSW 23:24:14 27° SW
Cosmos 2150 Rocket 4.0 23:19:31 10° NNW 23:24:41 77° WSW 23:25:46 55° S
NOAA 11 4.2 23:24:16 55° ESE 23:25:00 60° ENE 23:30:24 10° N
SPOT 1/Viking Rocket 3.5 23:26:09 62° ESE 23:26:41 67° ENE 23:31:52 10° N
Lacrosse 5 rocket 1.9 23:23:13 10° NW 23:26:10 45° W 23:26:10 45° W
DELTA 2 R/B (1) 3.5 23:21:33 10° W 23:27:03 64° SSW 23:27:32 61° SSE
YAOGAN 6 3.2 23:28:44 57° NNW 23:28:44 57° NNW 23:31:47 10° NNW
Cosmos 2016 Rocket 3.8 23:29:42 47° S 23:31:36 79° E 23:37:47 10° N
Cosmos 2058 Rocket 4.1 23:33:57 36° NE 23:33:57 36° NE 23:36:50 10° NNE
ASTEX 1 3.3 23:28:43 10° N 23:33:45 85° W 23:34:29 65° SSW
Cosmos 990 Rocket 3.8 23:32:12 10° NNW 23:37:28 76° ENE 23:37:36 75° E
Cosmos 1980 Rocket 2.0 23:39:08 72° SE 23:39:29 75° ESE 23:45:11 10° NNE
SL-08 RB Rocket 4.0 23:40:45 60° NNE 23:40:45 60° NNE 23:44:48 10° N
Terra 3.1 23:43:35 30° NE 23:43:35 30° NE 23:46:46 10° N
Tiangong 1 3.8 23:39:55 10° WNW 23:40:52 18° WNW 23:40:52 18° WNW
Cosmos 2084 4.1 23:40:20 10° NW 23:43:35 51° WNW 23:43:35 51° WNW
Cosmos 2173 Rocket 4.4 23:40:16 20° SSW 23:44:45 61° W 23:51:02 10° N
CZ-4B R/B 3.7 23:40:28 10° NNE 23:44:14 55° NNE 23:44:14 55° NNE
ARGOS 3.0 23:44:58 81° SSE 23:45:15 89° ENE 23:50:40 10° NNW
Cosmos 1606 Rocket 3.9 23:46:55 62° NW 23:46:55 62° NW 23:50:52 10° N
Meteor 1-21 4.3 23:43:11 10° NNW 23:48:56 74° W 23:49:49 62° SSW
Cosmos 1898 Rocket 4.4 23:48:06 10° NW 23:53:02 40° WSW 23:53:58 37° SW
